STARLINK-34900, 65374

Orbit data source: Space-Track

STARLINK-34900, 65374 is a payload satellite owned by SpaceX/Seattle (US) in LEO that was launched on Thu, 28 Aug 2025 UTC via an FALCON 9 launch vehicle from the Air Force Eastern Test Range (AFETR). Payload-class satellites include a variety of spacecraft equipped with specific instruments for various scientific and technological missions. These include communications satellites like Starlink; space stations such as the ISS; scientific satellites like the Hubble; Earth observation satellites from companies like Planet Labs, Umbra, and HawkEye 360; GPS; miniature CubeSats for education and research; and military/defense satellites.

Loading next visibility...
Identifier
65374, 2025-190Z
Orbit
LEO
Country
Flag of USUS
Related business
Manufacturer
SpaceX/Seattle
Mission
Operational Commercial Communications
Bus & Motor
STARLINK V2MO, Unknown motor
Mass
575 kg wet, ~530 kg dry
Launch date (UTC)
2025-08-28 (10 months ago)
Launch vehicle
FALCON 9
Launch site
Air Force Eastern Test Range (AFETR)
Object type
Payload
Rocket body
Debris
Shape & HBR
Box + 2 Pan, 17.7 m
Radar Cross Section
36.964 m², Large (>1 m²)

Expand to show TLE details & history
Last TLE update: 1 day ago

TLE from 1 day ago
0 STARLINK-34900
1 65374U 25190Z   26170.95078850  .00016663  00000-0  57321-3 0  9993
2 65374  53.1593  53.0514 0001379  86.7543 273.3615 15.30214913 44895
Epoch: 2026-06-19T22:49Z
TLE epoch observation values (Epoch: 2026-06-19T22:49:08.126Z)
Latitude
-0.00006°
Longitude
162.59509°
Altitude
476.015 km
Speed
7.629 km/s
True Right ascension
03h 32m 12s
True Declination
0° 00' 00"
Sunlit
Object was in daylight at epoch
Visualization orbit readout
Latitude
Unknown
Longitude
Unknown
Altitude
Unknown
Speed
Unknown
Apparent Right ascension
Unknown
Apparent Declination
Unknown
Sunlit
N/A
Visualization observer readout
Local Sidereal Time
10:19:43
Azimuth
Unknown
Elevation
Unknown
Doppler factor
Unknown
Orbital elements
Apogee altitude
476.372 km
Perigee altitude
474.482 km
Semi-major axis
6,853.564 km
Eccentricity
0.00014
Inclination
53.1593°
RAAN
53.0514°
Arg. of periapsis
86.7543°
True anomaly
273.34572°
Mean anomaly
273.3615°
Eccentric anomaly
273.35361°
Mean motion
3.82533 °/min
Orbital period
94.11 mins
BSTAR
0.00057321
Loading maneuver chart data...
Computing Atmospheric mass density...
Loading historical data...
Loading historical data...
Loading historical data...
Loading historical data...
Loading historical data...
Loading historical data...
Loading historical data...

Documentation

Showing up to 5 results
|